This is the latest recevied weather packets stored in our database for station/object KC5DAQ-28. If no packets are shown the sender has not sent any weather packets the latest 1 day(s).
| Time | Temp. | Humidity | Pressure | Rain* | Wind** | Luminosity | Snow |
|---|---|---|---|---|---|---|---|
| 1778047923 | 25° C | 89% | 1003.5 hPa | 0 mm | 1.79 m/s, 140° | - | - |
| 1778047863 | 25° C | 89% | 1003.5 hPa | 0 mm | 1.79 m/s, 140° | 0 W/m² | - |
| 1778047804 | 25° C | 89% | 1003.5 hPa | 0 mm | 1.79 m/s, 140° | 0 W/m² | - |
| 1778047744 | 25° C | 89% | 1003.4 hPa | 0 mm | 1.79 m/s, 140° | 0 W/m² | - |
| 1778047623 | 25° C | 89% | 1003.5 hPa | 0 mm | 1.79 m/s, 140° | 0 W/m² | - |
| 1778047574 | 25° C | 89% | 1003.5 hPa | 0 mm | 1.79 m/s, 140° | 0 W/m² | - |
| 1778047504 | 25° C | 89% | 1003.5 hPa | 0 mm | 1.79 m/s, 140° | 0 W/m² | - |
| 1778047444 | 25° C | 89% | 1003.5 hPa | 0 mm | 1.79 m/s, 140° | 0 W/m² | - |
| 1778047384 | 25° C | 89% | 1003.6 hPa | 0 mm | 1.79 m/s, 154° | 0 W/m² | - |
| 1778047323 | 25° C | 89% | 1003.6 hPa | 0 mm | 1.79 m/s, 135° | 0 W/m² | - |
| 1778047262 | 25° C | 89% | 1003.6 hPa | 0 mm | 1.34 m/s, 124° | 0 W/m² | - |
| 1778047202 | 25° C | 89% | 1003.7 hPa | 0 mm | 0.89 m/s, 165° | 0 W/m² | - |
| 1778047144 | 25° C | 89% | 1003.4 hPa | 0 mm | 1.34 m/s, 151° | 0 W/m² | - |
| 1778047084 | 25° C | 89% | 1003.4 hPa | 0 mm | 1.34 m/s, 158° | 0 W/m² | - |
| 1778047022 | 25° C | 89% | 1003.6 hPa | 0 mm | 0.89 m/s, 165° | 0 W/m² | - |
| 1778046963 | 25° C | 89% | 1003.5 hPa | 0 mm | 0.89 m/s, 149° | 0 W/m² | - |
| 1778046904 | 25° C | 89% | 1003.5 hPa | 0 mm | 0.89 m/s, 144° | 0 W/m² | - |
| 1778046843 | 25° C | 89% | 1003.5 hPa | 0 mm | 1.34 m/s, 176° | 0 W/m² | - |
| 1778046783 | 25° C | 89% | 1003.6 hPa | 0 mm | 1.34 m/s, 171° | 0 W/m² | - |
| 1778046723 | 25° C | 89% | 1003.6 hPa | 0 mm | 1.34 m/s, 182° | 0 W/m² | - |
| 1778046663 | 25° C | 89% | 1003.6 hPa | 0 mm | 0.89 m/s, 145° | 0 W/m² | - |
| 1778046603 | 25° C | 89% | 1003.6 hPa | 0 mm | 0.45 m/s, 165° | 0 W/m² | - |
| 1778046544 | 25° C | 89% | 1003.5 hPa | 0 mm | 0.45 m/s, 176° | 0 W/m² | - |
| 1778046483 | 25° C | 89% | 1003.6 hPa | 0 mm | 0.89 m/s, 179° | 0 W/m² | - |
| 1778046423 | 25° C | 89% | 1003.6 hPa | 0 mm | 1.34 m/s, 144° | 0 W/m² | - |
* Rain latest hour (hover to see other rain measurements)
** Current wind speed in m/s (hover to see current wind gust speed)